CEB4708 RPMD-RPVI

Flight info

Callsign CEB4708
Flight time 0h 50m
Altitude 32000
Route ANKIN3R ANKIN B473 LUMVI W7 SABEL
Aircraft A21N/M-SDE2E3FGHIRWXY/LB1

Departure

Time 2026-05-05 15:04
Airport Francisco Bangoy International Airport (RPMD)

Arrival

Time 2026-05-05 15:54
Airport Iloilo International Airport (RPVI)
Time Latitude Longitude Altitude Speed Heading
2026-05-05 14:26 7.12913 125.64503 92 ft 0 kts 320°
2026-05-05 14:52 7.12912 125.64504 101 ft 2 kts 320°
2026-05-05 14:52 7.12900 125.64515 101 ft 2 kts 319°
2026-05-05 14:53 7.12887 125.64526 101 ft 2 kts 317°
2026-05-05 14:53 7.12875 125.64537 101 ft 2 kts 314°
2026-05-05 14:53 7.12864 125.64550 100 ft 2 kts 307°
2026-05-05 14:53 7.12855 125.64564 100 ft 2 kts 288°
2026-05-05 14:54 7.12855 125.64580 101 ft 2 kts 238°
2026-05-05 14:54 7.12859 125.64587 100 ft 0 kts 230°
2026-05-05 14:58 7.12829 125.64551 100 ft 14 kts 230°
2026-05-05 14:58 7.12751 125.64465 101 ft 13 kts 218°
2026-05-05 14:58 7.12683 125.64464 101 ft 7 kts 154°
2026-05-05 14:58 7.12648 125.64486 101 ft 6 kts 140°
2026-05-05 14:59 7.12595 125.64531 101 ft 14 kts 140°
2026-05-05 14:59 7.12500 125.64513 100 ft 18 kts 227°
2026-05-05 14:59 7.12410 125.64409 100 ft 22 kts 228°
2026-05-05 14:59 7.12304 125.64286 101 ft 25 kts 229°
2026-05-05 15:00 7.12183 125.64144 102 ft 28 kts 229°
2026-05-05 15:00 7.12093 125.64042 103 ft 30 kts 229°
2026-05-05 15:00 7.11897 125.63806 102 ft 35 kts 231°
2026-05-05 15:00 7.11763 125.63647 100 ft 20 kts 246°
2026-05-05 15:01 7.11725 125.63572 100 ft 7 kts 224°
2026-05-05 15:01 7.11705 125.63581 100 ft 2 kts 109°
2026-05-05 15:01 7.11715 125.63599 100 ft 5 kts 65°
2026-05-05 15:01 7.11739 125.63631 100 ft 0 kts 49°
2026-05-05 15:03 7.11765 125.63661 100 ft 31 kts 49°
2026-05-05 15:03 7.12105 125.64053 103 ft 115 kts 49°
2026-05-05 15:03 7.12811 125.64869 178 ft 188 kts 48°
2026-05-05 15:04 7.13753 125.65947 881 ft 220 kts 47°
2026-05-05 15:04 7.14877 125.67102 1896 ft 232 kts 34°
2026-05-05 15:04 7.16441 125.67596 2981 ft 248 kts 357°
2026-05-05 15:04 7.18156 125.67163 4100 ft 258 kts 340°
2026-05-05 15:05 7.21646 125.66229 6546 ft 269 kts 353°
2026-05-05 15:05 7.23533 125.66008 7668 ft 275 kts 354°
2026-05-05 15:05 7.25446 125.65726 8753 ft 282 kts 352°
2026-05-05 15:06 7.27379 125.65392 9831 ft 288 kts 352°
2026-05-05 15:06 7.29422 125.65058 10818 ft 295 kts 352°
2026-05-05 15:06 7.31505 125.64735 11512 ft 313 kts 352°
2026-05-05 15:06 7.33739 125.64383 12123 ft 334 kts 352°
2026-05-05 15:07 7.36104 125.64002 12722 ft 354 kts 352°
2026-05-05 15:07 7.38591 125.63603 13526 ft 366 kts 352°
2026-05-05 15:07 7.41107 125.63202 14594 ft 368 kts 352°
2026-05-05 15:07 7.43663 125.62787 15469 ft 375 kts 351°
2026-05-05 15:08 7.46132 125.61884 16370 ft 384 kts 331°
2026-05-05 15:08 7.47574 125.60809 16966 ft 390 kts 317°
2026-05-05 15:08 7.49508 125.58523 17878 ft 398 kts 309°
2026-05-05 15:08 7.51204 125.56281 18667 ft 404 kts 308°
2026-05-05 15:09 7.52925 125.54016 19423 ft 409 kts 309°
2026-05-05 15:09 7.54705 125.51746 20164 ft 414 kts 310°
2026-05-05 15:09 7.56505 125.49456 20881 ft 420 kts 309°
2026-05-05 15:09 7.58313 125.47118 21620 ft 425 kts 309°
2026-05-05 15:10 7.60112 125.44784 22326 ft 430 kts 309°
2026-05-05 15:10 7.61969 125.42395 23030 ft 435 kts 309°
2026-05-05 15:10 7.63853 125.39977 23673 ft 441 kts 309°
2026-05-05 15:10 7.65777 125.37497 24279 ft 444 kts 309°
2026-05-05 15:11 7.67678 125.35042 24899 ft 447 kts 309°
2026-05-05 15:11 7.69601 125.32558 25484 ft 451 kts 309°
2026-05-05 15:11 7.71546 125.30052 26061 ft 455 kts 309°
2026-05-05 15:11 7.73507 125.27526 26639 ft 458 kts 308°
2026-05-05 15:12 7.75470 125.24992 27190 ft 462 kts 308°
2026-05-05 15:12 7.77455 125.22428 27744 ft 465 kts 308°
2026-05-05 15:12 7.79431 125.19879 28279 ft 468 kts 308°
2026-05-05 15:12 7.81441 125.17286 28803 ft 472 kts 308°
2026-05-05 15:13 7.83470 125.14664 29329 ft 475 kts 308°
2026-05-05 15:13 7.85513 125.12025 29822 ft 479 kts 308°
2026-05-05 15:13 7.87569 125.09372 30296 ft 482 kts 308°
2026-05-05 15:13 7.89631 125.06708 30900 ft 480 kts 308°
2026-05-05 15:14 7.91674 125.04067 31557 ft 477 kts 308°
2026-05-05 15:14 7.93719 125.01424 31993 ft 480 kts 308°
2026-05-05 15:14 7.95798 124.98741 31959 ft 487 kts 308°
2026-05-05 15:14 7.98130 124.96307 31983 ft 481 kts 320°
2026-05-05 15:15 8.00737 124.94176 31974 ft 483 kts 321°
2026-05-05 15:15 8.05982 124.89961 31975 ft 481 kts 321°
2026-05-05 15:16 8.11172 124.85697 31977 ft 481 kts 321°
2026-05-05 15:16 8.16391 124.81468 31977 ft 481 kts 321°
2026-05-05 15:17 8.21580 124.77222 31973 ft 479 kts 321°
2026-05-05 15:17 8.26768 124.73001 31967 ft 479 kts 321°
2026-05-05 15:18 8.31950 124.68768 31961 ft 480 kts 321°
2026-05-05 15:18 8.37150 124.64527 31949 ft 480 kts 321°
2026-05-05 15:19 8.42371 124.60322 31938 ft 479 kts 324°
2026-05-05 15:19 8.46801 124.56885 31931 ft 479 kts 321°
2026-05-05 15:20 8.52025 124.52765 31925 ft 480 kts 323°
2026-05-05 15:20 8.57335 124.48684 31919 ft 479 kts 322°
2026-05-05 15:21 8.62610 124.44547 31914 ft 479 kts 323°
2026-05-05 15:21 8.67909 124.40447 31910 ft 481 kts 322°
2026-05-05 15:22 8.73208 124.36306 31910 ft 481 kts 322°
2026-05-05 15:22 8.78524 124.32177 31908 ft 482 kts 322°
2026-05-05 15:23 8.83839 124.28030 31909 ft 483 kts 322°
2026-05-05 15:23 8.89161 124.23887 31914 ft 482 kts 322°
2026-05-05 15:24 8.94479 124.19740 31909 ft 482 kts 322°
2026-05-05 15:24 8.99795 124.15606 31909 ft 482 kts 322°
2026-05-05 15:25 9.05090 124.11450 31910 ft 482 kts 322°
2026-05-05 15:25 9.10374 124.07344 31907 ft 482 kts 322°
2026-05-05 15:26 9.15674 124.03197 31909 ft 481 kts 322°
2026-05-05 15:26 9.20977 123.99058 31910 ft 482 kts 322°
2026-05-05 15:27 9.26058 123.94609 31920 ft 480 kts 307°
2026-05-05 15:27 9.29421 123.88818 31903 ft 480 kts 297°
2026-05-05 15:28 9.32749 123.82914 31899 ft 480 kts 302°
2026-05-05 15:28 9.36815 123.77620 31903 ft 480 kts 315°
2026-05-05 15:29 9.41991 123.73349 31903 ft 481 kts 323°
2026-05-05 15:29 9.47227 123.69126 31904 ft 480 kts 317°
2026-05-05 15:30 9.52157 123.64557 31901 ft 481 kts 319°
2026-05-05 15:30 9.57308 123.60227 31903 ft 481 kts 319°
2026-05-05 15:31 9.62536 123.56007 31905 ft 481 kts 325°
2026-05-05 15:31 9.68018 123.52116 31899 ft 481 kts 324°
2026-05-05 15:32 9.73501 123.48222 31901 ft 481 kts 324°
2026-05-05 15:32 9.78993 123.44333 31905 ft 481 kts 324°
2026-05-05 15:33 9.84482 123.40427 31910 ft 481 kts 324°
2026-05-05 15:33 9.89979 123.36532 31915 ft 481 kts 324°
2026-05-05 15:34 9.95459 123.32631 31913 ft 481 kts 324°
2026-05-05 15:34 10.00938 123.28744 31918 ft 480 kts 324°
2026-05-05 15:35 10.06413 123.24845 31921 ft 480 kts 324°
2026-05-05 15:35 10.11856 123.20977 31924 ft 480 kts 324°
2026-05-05 15:36 10.17325 123.17082 31923 ft 479 kts 324°
2026-05-05 15:36 10.22786 123.13196 31921 ft 479 kts 324°
2026-05-05 15:37 10.28246 123.09303 31918 ft 476 kts 324°
2026-05-05 15:37 10.30860 123.07444 31823 ft 456 kts 324°
2026-05-05 15:37 10.33433 123.05613 30731 ft 435 kts 324°
2026-05-05 15:37 10.35890 123.03859 28427 ft 438 kts 325°
2026-05-05 15:38 10.38397 123.02069 26589 ft 429 kts 325°
2026-05-05 15:38 10.40799 123.00357 24989 ft 417 kts 325°
2026-05-05 15:38 10.43160 122.98674 23319 ft 410 kts 326°
2026-05-05 15:38 10.45472 122.97025 21543 ft 402 kts 326°
2026-05-05 15:39 10.47541 122.95547 20154 ft 389 kts 326°
2026-05-05 15:39 10.49727 122.93986 18669 ft 378 kts 326°
2026-05-05 15:39 10.51899 122.92439 17558 ft 385 kts 326°
2026-05-05 15:39 10.53991 122.90945 17010 ft 349 kts 326°
2026-05-05 15:40 10.55949 122.89544 16014 ft 328 kts 326°
2026-05-05 15:40 10.57708 122.88287 15595 ft 295 kts 326°
2026-05-05 15:40 10.59367 122.87104 14559 ft 290 kts 326°
2026-05-05 15:40 10.61018 122.85929 13508 ft 287 kts 326°
2026-05-05 15:41 10.62702 122.84886 12439 ft 281 kts 335°
2026-05-05 15:41 10.64443 122.84046 11596 ft 268 kts 338°
2026-05-05 15:41 10.66070 122.83312 11115 ft 245 kts 338°
2026-05-05 15:41 10.67596 122.82625 10602 ft 230 kts 338°
2026-05-05 15:42 10.69101 122.81945 10457 ft 247 kts 338°
2026-05-05 15:42 10.70632 122.81253 10146 ft 239 kts 338°
2026-05-05 15:42 10.72181 122.80554 9833 ft 242 kts 338°
2026-05-05 15:42 10.73714 122.79859 9497 ft 244 kts 338°
2026-05-05 15:43 10.75243 122.79164 9186 ft 239 kts 338°
2026-05-05 15:43 10.76767 122.78472 8874 ft 239 kts 338°
2026-05-05 15:43 10.78276 122.77788 8579 ft 238 kts 338°
2026-05-05 15:43 10.79784 122.77105 8278 ft 236 kts 338°
2026-05-05 15:44 10.81281 122.76426 8004 ft 234 kts 338°
2026-05-05 15:44 10.82762 122.75755 8001 ft 235 kts 338°
2026-05-05 15:44 10.84254 122.75080 8003 ft 234 kts 338°
2026-05-05 15:44 10.85739 122.74408 7978 ft 226 kts 338°
2026-05-05 15:45 10.87149 122.73766 7161 ft 226 kts 338°
2026-05-05 15:45 10.88611 122.73104 6315 ft 230 kts 338°
2026-05-05 15:45 10.90057 122.72450 5613 ft 230 kts 338°
2026-05-05 15:45 10.91462 122.71815 5424 ft 211 kts 338°
2026-05-05 15:46 10.92724 122.71237 5418 ft 187 kts 338°
2026-05-05 15:46 10.93846 122.70713 5397 ft 166 kts 338°
2026-05-05 15:46 10.94887 122.70222 5066 ft 168 kts 338°
2026-05-05 15:46 10.96026 122.69698 4338 ft 193 kts 338°
2026-05-05 15:47 10.97343 122.69096 3530 ft 220 kts 338°
2026-05-05 15:47 10.98252 122.68615 3267 ft 223 kts 326°
2026-05-05 15:47 10.99296 122.66876 3000 ft 217 kts 289°
2026-05-05 15:47 10.99723 122.65391 3010 ft 216 kts 288°
2026-05-05 15:48 11.00109 122.64056 3006 ft 183 kts 288°
2026-05-05 15:48 11.00474 122.62806 3010 ft 177 kts 288°
2026-05-05 15:48 11.00804 122.61636 3011 ft 174 kts 288°
2026-05-05 15:48 11.01125 122.60487 3006 ft 165 kts 286°
2026-05-05 15:49 11.01004 122.59335 3007 ft 165 kts 239°
2026-05-05 15:49 11.00292 122.58388 3020 ft 166 kts 227°
2026-05-05 15:49 10.99550 122.57504 3016 ft 167 kts 229°
2026-05-05 15:49 10.98806 122.56612 3014 ft 166 kts 228°
2026-05-05 15:50 10.98040 122.55695 2746 ft 170 kts 228°
2026-05-05 15:50 10.97287 122.54806 2568 ft 162 kts 225°
2026-05-05 15:50 10.96326 122.54211 2528 ft 161 kts 196°
2026-05-05 15:50 10.95276 122.53807 2368 ft 164 kts 199°
2026-05-05 15:51 10.94224 122.53378 2159 ft 162 kts 198°
2026-05-05 15:51 10.93169 122.52982 1946 ft 163 kts 198°
2026-05-05 15:51 10.92106 122.52588 1735 ft 162 kts 199°
2026-05-05 15:51 10.91031 122.52191 1536 ft 164 kts 199°
2026-05-05 15:52 10.89968 122.51804 1319 ft 159 kts 199°
2026-05-05 15:52 10.88941 122.51424 1112 ft 157 kts 200°
2026-05-05 15:52 10.87919 122.51045 916 ft 154 kts 199°
2026-05-05 15:52 10.86900 122.50669 718 ft 157 kts 200°
2026-05-05 15:53 10.85865 122.50286 522 ft 158 kts 201°
2026-05-05 15:53 10.84838 122.49909 294 ft 156 kts 201°
2026-05-05 15:53 10.83855 122.49539 140 ft 127 kts 201°
2026-05-05 15:53 10.83319 122.49341 141 ft 66 kts 200°
2026-05-05 15:54 10.83095 122.49268 142 ft 0 kts 164°
2026-05-05 15:54 10.83086 122.49290 142 ft 7 kts 106°
2026-05-05 15:54 10.83072 122.49350 141 ft 10 kts 106°
2026-05-05 15:54 10.83056 122.49410 140 ft 8 kts 105°
2026-05-05 15:55 10.83040 122.49451 140 ft 5 kts 110°
2026-05-05 15:55 10.83032 122.49481 140 ft 5 kts 102°
2026-05-05 15:55 10.83032 122.49505 140 ft 6 kts 84°
2026-05-05 15:55 10.83074 122.49544 140 ft 6 kts 38°
2026-05-05 15:56 10.83079 122.49556 140 ft 3 kts 70°
2026-05-05 15:56 10.83071 122.49583 140 ft 6 kts 106°
2026-05-05 15:56 10.83059 122.49616 140 ft 4 kts 110°
2026-05-05 15:56 10.83054 122.49630 140 ft 2 kts 110°
2026-05-05 15:57 10.83053 122.49632 140 ft 0 kts 110°
2026-05-05 15:57 10.83052 122.49634 140 ft 0 kts 110°